Miscellaneous Local Product
Issued by NWS Hastings, NE

Home | Current Version | Previous Version | Text Only | Print | Product List | Glossary On
Versions: 1 2 3 4 5 6 7 8 9 10 11 12 13 14 15 16 17 18 19 20 21 22 23 24 25 26 27 28 29 30 31 32 33 34 35 36 37 38 39 40 41 42 43 44 45 46 47 48 49 50
000
AXUS43 KGID 100702
MISGRI

GID CWA HOURLY WEATHER ROUNDUP
NATIONAL WEATHER SERVICE HASTINGS NE
200 AM CDT MON MAY 10 2021

NOTE: "FAIR" INDICATES FEW OR NO CLOUDS BELOW 12,000 FEET WITH NO
SIGNIFICANT WEATHER AND/OR OBSTRUCTIONS TO VISIBILITY.

...SOUTH CENTRAL NEBRASKA...

CITY           SKY/WX    TMP DP  RH WIND       PRES   REMARKS
GRAND ISLAND   PTCLDY    37  32  82 NW6       30.18S WCI  32
KEARNEY        PTCLDY    37  32  82 NW5       30.17F WCI  33
HASTINGS       PTCLDY    40  36  86 CALM      30.16F
ORD            PTCLDY    32  28  85 CALM      30.17S
YORK           CLEAR     39  37  93 NW7       30.16S WCI  34
AURORA         PTCLDY    39  36  89 NW6       30.17S WCI  35
LEXINGTON      PTCLDY    38  34  84 NE3       30.17S
HOLDREGE       PTCLDY    38  34  83 CALM      30.16F
HEBRON         PTCLDY    43  39  86 CALM      30.16F

...NEBRASKA PANHANDLE...

CITY           SKY/WX    TMP DP  RH WIND       PRES   REMARKS
CHADRON        PTCLDY    34  30  85 NE3       30.17S
ALLIANCE       MOCLDY    41  34  76 E7        30.12S
SCOTTSBLUFF    MOCLDY    43  34  70 SW6       30.13S
SIDNEY         CLOUDY    39  35  86 W3        30.12R

...WESTERN AND NORTH CENTRAL NEBRASKA...

CITY           SKY/WX    TMP DP  RH WIND       PRES   REMARKS
VALENTINE      CLOUDY    43  36  76 CALM      30.19S
AINSWORTH      CLOUDY    41  35  79 NW3       30.19S
ONEILL         CLOUDY    38  34  87 W6        30.19S WCI  33
BROKEN BOW     MOCLDY    32  29  88 NW3       30.17S
IMPERIAL       PTCLDY    40  35  83 SE7       30.14F
NORTH PLATTE   PTCLDY    36  31  82 E5        30.16S WCI  32
MCCOOK         PTCLDY    42  36  79 SE3       30.16S

...EASTERN NEBRASKA...

CITY           SKY/WX    TMP DP  RH WIND       PRES   REMARKS
NORFOLK        PTCLDY    38  32  79 W6        30.17R WCI  33
SO SIOUX CITY  CLEAR     40  34  79 NW5       30.15S
TEKAMAH        CLEAR     43  36  76 NW6       30.14S
COLUMBUS       CLEAR     39  34  82 W6        30.18R WCI  35
ALBION         PTCLDY    32  31  96 NW5       30.18S WCI  27
OMAHA EPPLEY   PTCLDY    45  41  86 N3        30.14S
OFFUTT AFB     CLEAR     46  39  76 N1        30.14R
MILLARD        CLEAR     45  40  83 CALM      30.14S
LINCOLN        CLEAR     41  35  79 CALM      30.17S
NEBRASKA CITY  PTCLDY    46  40  80 NW7       30.14S
BEATRICE       PTCLDY    39  37  92 CALM      30.16R
FALLS CITY     PTCLDY    43  40  89 W5        30.14S

...NORTHERN KANSAS...

CITY           SKY/WX    TMP DP  RH WIND       PRES   REMARKS
GOODLAND       CLOUDY    44  38  79 SE8       30.13S
HILL CITY      MOCLDY    44  39  82 N5        30.16F
NORTON         FAIR      39  36  87 CALM      30.19F
PHILLIPSBURG   CLEAR     37  37 100 NW6       30.16F WCI  33
OBERLIN        FAIR      41  38  89 SE3       30.20S
SMITH CENTER   PTCLDY    37  37 100 N7        30.16S WCI  32
HAYS           CLOUDY    42  41  96 N7        30.16S
RUSSELL        PTCLDY    42  38  85 N3        30.14S
CONCORDIA      MOCLDY    46  39  76 N8        30.14F
SALINA         MOCLDY    47  44  90 N5        30.13F
TOPEKA         MOCLDY    47  43  86 CALM      30.15S


USA.gov is the U.S. government's official web portal to all federal, state and local government web resources and services.